Location: Civry
(47.2902°N, 4.6156°E)
Time: 13:35:19
(UTC+00:00)

Cosmos 1954 Rocket - Visible Passes

Search period start: 06 August 2020 00:00
Search period end: 16 August 2020 00:00
Orbit: 751 x 782 km, 74.0° (Epoch: 05 August)

Date Brightness Start Highest point End Pass type
(mag) Time Alt. Az. Time Alt. Az. Time Alt. Az.
06 Aug 4.0 21:22:36 25° S 21:25:40 67° ESE 21:30:58 10° NNE visible
06 Aug 6.2 23:04:07 10° WSW 23:08:13 22° NW 23:12:21 10° N visible
07 Aug 4.5 20:44:50 18° SSE 20:48:22 40° ESE 20:53:19 10° NE visible
07 Aug 5.6 22:25:42 10° WSW 22:30:29 33° WNW 22:35:17 10° N visible
08 Aug 5.1 20:06:54 10° SSE 20:11:09 25° E 20:15:25 10° NE visible
08 Aug 4.8 21:47:41 10° SW 21:52:52 51° WNW 21:58:04 10° NNE visible
08 Aug 7.0 23:35:02 10° NW 23:36:15 11° NW 23:37:29 10° NNW visible
09 Aug 5.6 19:31:06 10° SE 19:34:03 15° E 19:37:00 10° ENE visible
09 Aug 4.1 21:10:01 10° SSW 21:15:21 81° WNW 21:20:43 10° NNE visible
09 Aug 6.7 22:55:06 10° W 22:58:17 16° NW 23:01:29 10° N visible
10 Aug 4.0 20:32:42 10° S 20:37:56 63° ESE 20:43:13 10° NNE visible
10 Aug 6.3 22:16:15 10° WSW 22:20:26 23° NW 22:24:40 10° N visible
11 Aug 4.5 19:55:46 10° S 20:00:39 38° ESE 20:05:33 10° NE visible
11 Aug 5.6 21:37:53 10° WSW 21:42:43 34° WNW 21:47:35 10° N visible
12 Aug 4.8 20:59:55 10° SW 21:05:07 53° WNW 21:10:21 10° NNE visible
12 Aug 7.1 22:46:53 10° WNW 22:48:27 11° NW 22:50:02 10° NNW visible
13 Aug 7.2 04:02:14 10° NNE 04:04:33 13° NE 04:06:51 10° ENE visible
13 Aug 4.1 20:22:17 10° SSW 20:27:37 85° WNW 20:32:59 10° NNE visible
13 Aug 6.9 22:07:11 10° W 22:10:30 16° NW 22:13:50 10° N visible
14 Aug 4.1 19:45:01 10° S 19:50:13 60° ESE 19:55:28 10° NNE visible
14 Aug 6.4 21:28:23 10° WSW 21:32:41 24° NW 21:36:58 10° N visible
15 Aug 5.7 20:50:05 10° SW 20:54:58 36° WNW 20:59:53 10° N visible
